Starlink 5573

operational
NORAD ID: 55750 Int'l Des: 2023-028 Owner: SPXS Country: US Constellation: starlink
LEOCIRCULAR

Starlink 5573について

説明を読み込み中...

リアルタイム位置

3D地球を読み込み中...

次回通過

高度履歴

Altitude vs Time

uPlot chart will show altitude changes over time

軌道要素

1 55750U 23028K 25308.07320584 .00000537 00000-0 52831-4 0 9992
2 55750 70.0007 201.1933 0002842 267.5346 92.5488 14.98333663147224
Epoch: Nov 4, 2025 • Age: 8 hours

現在のステータス

高度 580.8 km
速度 7.57 km/s
衛星直下点 48.87°N, 30.85°E
打ち上げ日 Mar 3, 2023
運用期間 2.6 years
タイプ internet

技術仕様

分類 Payload
質量 305.00 kg
乾燥質量 290.00 kg
総質量 305.00 kg
長さ 0.20 m
直径 2.80 m
スパン 9.00 m
形状 Box + pan
製造者 SPXS
バスタイプ Starlink
フェーズステータス In Orbit
所有者/国 SPXS/US

大規模コンステレーション

Loading constellations...